www.pogodaiklimat.ru

Погода и климат >> Архив погоды >> Новая Зеландия >> Пальмерстон-Норт


ПОГОДА в Пальмерстон-Норте

  • Прогноз погоды в Пальмерстон-Норте
  • Монитор погоды в Пальмерстон-Норте

АРХИВ ПОГОДЫ в Пальмерстон-Норте

Время (UTC), дата Ветер
(напр.,м/с)
 
Видим.   Явления Облачность Т
(С)
Тd
(С)
f
(%)
Тe
(С)
Тes
(С)
Комфортность P
(гПа)
Po
(гПа)
Тmin
(С)
Tmax
(С)
R
(мм)
R24
(мм)
S
(см)
09 10.09 В 5 20 км н/о +6.6 +2.8 77 +2 +2 1004.3 998.7
12 10.09 В 3 20 км н/о +2.7 +0.8 87 -1 -1 1004.8 999.1 +12.5
15 10.09 ЮВ 2 20 км н/о +1.1 -1.1 85 -2 -2 1003.7 998.0
18 10.09 С 1 50 км н/о +0.1 -0.6 95 -2 -2 1005.1 999.3
21 10.09 С 3 20 км н/о +10.0 +6.3 78 +8 +8 1006.3 1000.7
00 11.09 З 5 20 км н/о +13.0 +5.8 62 +11 +11 1008.0 1002.4 -0.5
03 11.09 ЮВ 6 20 км н/о +12.6 +6.0 64 +10 +10 1008.9 1003.3
06 11.09 В 3 20 км н/о +8.9 +4.1 72 +7 +7 1010.4 1004.8
09 11.09 В 4 20 км н/о +8.6 +3.7 71 +6 +6 1012.8 1007.1
12 11.09 В 3 20 км н/о +8.0 +4.1 76 +5 +5 1013.3 1007.6 +14.9
15 11.09 СВ 1 20 км н/о +4.5 +3.3 92 +3 +3 1013.4 1007.7
18 11.09 С 4 20 км н/о +6.0 +4.6 91 +2 +2 1013.5 1007.8
21 11.09 СЗ 4 10 км н/о +11.7 +8.9 83 +10 +10 1014.9 1009.3
00 12.09 СЗ 6 20 км н/о +14.6 +6.8 59 +13 +13 1014.7 1009.1 +3.9
03 12.09 СЗ 8 20 км н/о +14.1 +8.9 71 +12 +12 1013.2 1007.6
06 12.09 СЗ 8 10 км н/о +11.7 +8.2 79 +8 +8 1013.5 1007.9
09 12.09 СЗ 6 10 км н/о +10.9 +7.8 81 +8 +8 1014.3 1008.7
12 12.09 СЗ 6 10 км н/о +11.5 +8.6 82 +9 +9 1014.4 1008.8 +15.2
15 12.09 СЗ 5 20 км н/о +11.5 +8.6 82 +9 +9 1013.8 1008.2
18 12.09 С 5 20 км н/о +10.3 +9.3 94 +7 +7 1013.6 1008.0 1
21 12.09 СЗ 6 20 км н/о +11.7 +10.2 91 +9 +9 1013.6 1008.0
00 13.09 СЗ 10 20 км н/о +15.3 +9.6 69 +13 +13 1012.5 1007.0 +10.2 2
03 13.09 З 11 20 км н/о +15.3 +9.0 66 +13 +13 1011.1 1005.6
06 13.09 З 8 20 км н/о +13.4 +9.8 79 +11 +11 1011.4 1005.8
09 13.09 СЗ 4 10 км н/о +12.0 +10.6 91 +10 +10 1012.9 1007.3
12 13.09 СЗ 3 20 км н/о +11.9 +10.0 88 +10 +10 1012.9 1007.3 +16.2 2
15 13.09 С 2 20 км н/о +11.3 +9.0 86 +10 +10 1012.6 1007.0
18 13.09 СВ 1 20 км н/о +8.7 +7.0 89 +8 +8 1013.2 1007.5
21 13.09 СВ 3 20 км н/о +13.2 +9.8 80 +12 +12 1013.4 1007.8
00 14.09 СЗ 4 20 км н/о +17.6 +10.3 62 +17 +17 1011.5 1006.0 +7.7 2
03 14.09 СЗ 3 20 км н/о +17.5 +10.6 64 +18 +18 1009.4 1003.9
06 14.09 Ю 1 20 км н/о +13.4 +11.2 87 +14 +14 1008.9 1003.4 0.3
09 14.09 СВ 1 20 км н/о +9.7 +9.1 96 +9 +9 1008.2 1002.6
12 14.09 СВ 1 20 км н/о +9.3 +8.9 97 +8 +8 1006.3 1000.7 +18.0
15 14.09 С 2 20 км н/о +10.5 +7.8 83 +10 +10 1005.2 999.6
18 14.09 СЗ 5 20 км н/о +9.3 +7.4 88 +6 +6 1006.7 1001.1 0.7
21 14.09 СЗ 8 20 км н/о +12.1 +8.2 77 +9 +9 1008.0 1002.4
00 15.09 З 13 20 км н/о +13.7 +7.9 68 +10 +10 1008.3 1002.8 +8.9 1
03 15.09 З 13 20 км н/о +13.5 +6.6 63 +10 +10 1008.3 1002.8
06 15.09 З 7 20 км н/о +11.2 +7.0 75 +8 +8 1009.2 1003.6
09 15.09 СЗ 5 20 км н/о +9.8 +6.7 81 +7 +7 1010.5 1004.9
12 15.09 СЗ 5 20 км н/о +9.3 +6.6 83 +6 +6 1010.8 1005.2 +14.5
15 15.09 СЗ 6 20 км н/о +10.0 +7.1 82 +7 +7 1010.5 1004.9
18 15.09 СЗ 5 20 км н/о +9.8 +7.9 88 +7 +7 1011.5 1005.9
21 15.09 СЗ 5 20 км н/о +11.9 +9.4 85 +10 +10 1013.0 1007.4
00 16.09 З 9 20 км н/о +13.5 +9.2 75 +11 +11 1014.3 1008.7 +9.3
03 16.09 СЗ 7 20 км н/о +13.7 +9.9 78 +11 +11 1013.7 1008.1
06 16.09 СЗ 8 20 км н/о +13.0 +8.4 74 +10 +10 1013.7 1008.1
09 16.09 СЗ 8 20 км н/о +12.7 +8.3 75 +10 +10 1013.4 1007.8
12 16.09 СЗ 9 20 км н/о +13.2 +8.0 71 +10 +10 1012.6 1007.0 +14.6
15 16.09 СЗ 7 20 км н/о +11.9 +9.4 85 +9 +9 1012.3 1006.7
18 16.09 СЗ 8 20 км н/о +13.5 +9.8 78 +11 +11 1012.0 1006.4
21 16.09 СЗ 8 4000 м н/о +13.0 +12.2 95 +10 +10 1013.3 1007.7
00 17.09 З 10 10 км н/о +14.0 +11.8 87 +11 +11 1014.6 1009.0 +11.7 0.9
03 17.09 СЗ 10 20 км н/о +13.3 +8.4 72 +10 +10 1016.2 1010.6
06 17.09 СЗ 8 10 км н/о +11.3 +6.0 70 +8 +8 1019.0 1013.4

 

Местоположение метеостанции Пальмерстон-Норт (Новая Зеландия): широта -40.31 долгота 175.60 высота над уровнем моря 39 м.

В архиве по умолчанию представлена погода в Пальмерстон-Норте за последнюю неделю. Архивные данные за месяц целиком и за предыдущие месяцы, начиная с января 2011 года, Вы можете получить, выбрав интересующий диапазон дат из раскрывающегося списка и нажав кнопку "Ввод!".


*Определитесь, кто Вы:
робот инопланетянин человек

Внимание! Время в таблицах - всемирное. Для получения местного времени необходимо прибавить поправку, которая равна 12 ч.

Смотрите также архив погоды в соседних городах и на ближайших метеорологических станциях:

Погода в Парапарауму (Новая Зеландия) (84 км)
Погода в Каслпойнт (Новая Зеландия) (84 км)
Погода на Уэйауру (Новая Зеландия) (98 км)
Погода в Веллингтоне (Новая Зеландия) (132 км)
Погода в Нейпире (Новая Зеландия) (143 км)
Погода на Таупо (Новая Зеландия) (180 км)
Погода в Нью-Плимуте (Новая Зеландия) (189 км)
Погода на Мысе Кэмпбелл (Новая Зеландия) (197 км)
Погода на Косе Farewell (Новая Зеландия) (222 км)
Погода в Нельсоне (Новая Зеландия) (227 км)

Пояснения к столбцам:

Ветер - указаны скорость ветра в м/с - средняя за 10 мин, порывы в срок и между сроками (в фигурных скобках) и направление, откуда дует ветер: С - северный, СВ - северо-восточный, В - восточный, ЮВ - юго-восточный, Ю - южный, ЮЗ - юго-западный, З - западный, СЗ - северо-западный.
Видимость - горизонтальная дальность видимости в метрах или километрах. При видимости от 1 до 10 км при отсутствии осадков обычно наблюдается дымка, при ухудшении видимости до 1 км и менее - туман. В сухую погоду видимость может ухудшаться дымом, пылью или мглою.
Явления - указаны атмосферные явления, наблюдавшиеся в срок или в последний час перед сроком; фигурными скобками обозначены явления, наблюдавшиеся между сроками (за 1-3 часа до срока); квадратными скобками обозначены град или гололедные отложения с указанием их диаметра в мм.
Облачность - указаны через наклонную черту общая и нижняя облачность в баллах и высота нижней границы облаков в метрах; квадратными скобками обозначены формы облаков: Ci - перистые, Cs - перисто-слоистые, Cc - перисто-кучевые, Ac - высококучевые, As - высокослоистые, Sc - слоисто-кучевые, Ns - слоисто-дождевые, Cu - кучевые, Cb - кучево-дождевые. Подробнее классификацию облаков см. в Атласе облаков (PDF).
T - Температура воздуха - температура, измеренная на высоте 2 м над землей.
Td - Температура точки росы - температура, при понижении до которой содержащийся в воздухе водяной пар достигнет насыщения.
f - Относительная влажность воздуха - влажноcть воздуха, измеренная на высоте 2 м над землей.
Te - Эффективная температура - температура, которую ощущает одетый по сезону человек в тени. Характеристика душности погоды. При расчете учитывается влияние влажности воздуха и скорости ветра на теплоощущения человека.
Tes - Эффективная температура на солнце - температура, которую ощущает человек, с поправкой на солнечный нагрев. Характеристика знойности погоды. Зависит от высоты солнца над горизонтом, облачности и скорости ветра. Ночью, в пасмурную погоду, а также при ветре 12 м/с и более поправка равна нулю.
P - Атмосферное давление - приведенное к уровню моря атмосферное давление.
Po - Атмосферное давление - измеренное на уровне метеостанции атмосферное давление.
Tmin - Минимальная температура - минимум температуры воздуха на высоте 2 м над землей.
Tmax - Максимальная температура - максимум температуры воздуха на высоте 2 м над землей.
R - Количество осадков - Количество выпавших осадков за период времени, мм. При наведении курсора мыши на число - период времени, за который выпало указанное количество осадков.
R24 - Количество осадков - Количество выпавших осадков за 24 часа, мм.
S - Снежный покров - Высота снежного покрова, см. При наведении курсора мыши на число - состояние снежного покрова и степень покрытия местности в баллах.